Home > Weather > Shreveport > Past weeks

Flag for U.S.A. Weather for the Past 2 Weeks in Shreveport, Louisiana, U.S.A.

Now
40 °F

Clear.


Feels Like: 38 °F
Forecast: 32 / 62 °F
Wind: 3 mph from Southwest

Location: Shreveport Regional Airport

Current Time: Feb 7, 2016 at 12:06:31 AM

Latest Report: Feb 6, 2016 at 10:56 PM


Visibility: 10 mi

Pressure: 30.33 "Hg

Humidity: 80%

Dew point: 34 °F

Location of ShreveportLocation

Historic Weather in Shreveport — Graph

°F

Shreveport Temperature Yesterday

Maximum temperature yesterday: 55 °F (at 3:56 PM)
Minimum temperature yesterday: 37 °F (at 4:56 AM)
Average temperature yesterday: 44 °F

High & Low Weather Summary for the Past Weeks

 TemperatureHumidityPressure
High78 °F (Jan 31, 2:56 PM)92% (Jan 24, 4:56 AM)30.51 "Hg (Jan 24, 4:56 AM)
Low27 °F (Feb 5, 6:56 AM)17% (Feb 2, 3:56 PM)29.60 "Hg (Feb 2, 12:56 AM)
Average52 °F58%30.08 "Hg
* Reported Jan 22 10:56 PM — Feb 6 10:56 PM, Shreveport, Weather by CustomWeather, © 2016

Note: Actual official high and low records may vary slightly from our data, if they occured in-between our weather recording intervals... More about our weather records

Advertising

Shreveport Weather History for the Previous 24 Hours

 ConditionsComfort  
Time TempWeatherWind HumidityBarometerVisibility
10:56 PM
Sat, Feb 6
40 °FClear.3 mph80%30.33 "Hg10 mi
9:56 PM40 °FClear.6 mph80%30.34 "Hg10 mi
8:56 PM41 °FClear.6 mph70%30.34 "Hg10 mi
7:56 PM44 °FClear.6 mph58%30.33 "Hg10 mi
6:56 PM45 °FClear.No wind53%30.33 "Hg10 mi
5:56 PM48 °FClear.5 mph48%30.31 "Hg10 mi
4:56 PM55 °FPassing clouds.No wind34%30.31 "Hg10 mi
3:56 PM55 °FPassing clouds.7 mph35%30.31 "Hg10 mi
2:56 PM54 °FScattered clouds.No wind40%30.31 "Hg10 mi
1:56 PM52 °FScattered clouds.3 mph49%30.31 "Hg10 mi
12:56 PM50 °FOvercast.5 mph48%30.34 "Hg10 mi
11:56 AM49 °FOvercast.7 mph55%30.35 "Hg10 mi
10:56 AM48 °FOvercast.3 mph54%30.35 "Hg10 mi
9:56 AM45 °FOvercast.7 mph60%30.33 "Hg10 mi
8:56 AM42 °FOvercast.6 mph68%30.32 "Hg10 mi
7:56 AM40 °FMostly cloudy.6 mph68%30.31 "Hg10 mi
6:56 AM37 °FOvercast.3 mph79%30.32 "Hg10 mi
5:56 AM37 °FMostly cloudy.3 mph79%30.33 "Hg10 mi
4:56 AM37 °FMostly cloudy.No wind73%30.30 "Hg10 mi
3:56 AM38 °FOvercast.3 mph68%30.29 "Hg10 mi
2:56 AM38 °FPassing clouds.6 mph68%30.30 "Hg10 mi
1:56 AM38 °FPassing clouds.No wind60%30.31 "Hg10 mi
12:56 AM39 °FClear.5 mph55%30.32 "Hg10 mi
Weather by CustomWeather, © 2016

See weather overviewHow to use our weather pages